Regional Weather Roundup
Issued by NWS

Home | Current Version | Previous Version | Graphics & Text | Print | Product List | Glossary On
Versions: 1 2 3 4 5 6 7 8 9 10 11 12 13 14 15 16 17 18 19 20 21 22 23 24 25 26 27 28 29 30 31 32 33 34 35 36 37 38 39 40 41 42 43 44 45 46 47 48 49 50
000
ASUS43 KMPX 292110
RWRMN
WEATHER ROUNDUP FOR MINNESOTA
NATIONAL WEATHER SERVICE TWIN CITIES/CHANHASSEN MN
400 PM CDT THU SEP 29 2016


NOTE: "FAIR" INDICATES FEW OR NO CLOUDS BELOW 12,000 FEET WITH NO
SIGNIFICANT WEATHER AND/OR OBSTRUCTIONS TO VISIBILITY. N/A MEANS
CURRENT SKY AND/OR WEATHER CONDITIONS ARE NOT AVAILABLE.

MNZ060>063-068>070-292200-
   Twin Cities Metro

CITY           SKY/WX    TMP DP  RH WIND       PRES   REMARKS
TWIN CITIES    MOSUNNY   67  50  54 VRB7      30.41F
ST PAUL        SUNNY     67  50  54 VRB3      30.42F
CRYSTAL        MOSUNNY   66  48  52 N8        30.41F
BLAINE         MOSUNNY   66  50  55 NE6       30.42F
LAKEVILLE      SUNNY     64  50  59 NE8       30.41F
EDEN PRAIRIE   SUNNY     67  49  52 CALM      30.40F
LAKEVILLE      SUNNY     64  50  59 NE8       30.41F
SOUTH ST PAUL  SUNNY     67  49  52 CALM      30.40F
LAKE ELMO      FAIR      66  52  59 N3        30.42F
$$
MNZ001>005-007-008-013>017-022>024-027-028-292200-
   Northwest Minnesota

CITY           SKY/WX    TMP DP  RH WIND       PRES   REMARKS
BEMIDJI        CLOUDY    58  44  59 SE6       30.46F
HALLOCK        SUNNY     63  48  59 S9        30.41F
ROSEAU         PTSUNNY   64  50  59 S9        30.44F HAZE
WARROAD        PTSUNNY   61  52  72 NE7       30.46F
THIEF RVR FALL MOSUNNY   63  46  54 S8        30.43F
CROOKSTON      SUNNY     64  46  52 S8        30.42F
FOSSTON        MOSUNNY   66  46  48 SE7       30.44F
DETROIT LAKES  MOSUNNY   61  45  55 SE8       30.44F
MOORHEAD       SUNNY     66  45  45 SE9       30.42F
PARK RAPIDS    PTSUNNY   61  42  49 E9        30.45F
MAHNOMEN       MOCLDY    63  44  50 SE6       30.43F
$$
MNZ006-009>011-018-025>026-292200-
   North Central Minnesota

CITY           SKY/WX    TMP DP  RH WIND       PRES   REMARKS
BAUDETTE       MOSUNNY   60  46  59 SE9       30.47F
FLAG ISLAND    MOSUNNY   59  46  63 SE10      30.46F
INTL FALLS     CLOUDY    58  47  66 SE6       30.49F
WASKISH        CLOUDY    59  48  67 SE5       30.47F
BIG FORK       CLOUDY    57  48  72 CALM      30.49S
GRAND RAPIDS   CLOUDY    58  47  66 SE3       30.49F
CRANE LAKE     CLOUDY    55  48  76 CALM      30.52F
ORR            CLOUDY    55  45  67 CALM      30.48F
COOK           CLOUDY    55  46  71 CALM      30.50F
WALKER         CLOUDY    57  49  73 NE3       30.46F
$$
MNZ012-019>021-037-292200-
   Northeast Minnesota

CITY           SKY/WX    TMP DP  RH WIND       PRES   REMARKS
DULUTH         MOSUNNY   60  47  61 NE7       30.47F
ELY            CLOUDY    55  45  67 CALM      30.50S
HIBBING        CLOUDY    58  45  62 CALM      30.48F
EVELETH        CLOUDY    59  45  60 E3        30.49F
DULUTH HARBOR  SUNNY     57  54  88 NE17      30.49F
TWO HARBORS    SUNNY     63  52  67 E12       30.48S
SILVER BAY     SUNNY     61  48  63 E7        30.48F
GRAND MARAIS     N/A     58  48  69 SE5       30.50S
G MARAIS ARPRT CLOUDY    57  46  67 CALM      30.51F
$$
MNZ029>031-032-039>041-046>048-054>057-064-292200-
   West Central Minnesota

CITY           SKY/WX    TMP DP  RH WIND       PRES   REMARKS
FERGUS FALLS   MOSUNNY   63  46  55 SE8       30.44F
WHEATON        SUNNY     68  48  49 SE8       30.42F
MORRIS         MOSUNNY   66  46  48 E10G16    30.41F
ALEXANDRIA     SUNNY     63  46  54 E9        30.45F
ELBOW LAKE     FAIR      63  46  54 SE6       30.43F
WADENA         CLOUDY    61  46  59 SE7       30.45F
GLENWOOD       MOSUNNY   64  46  52 E7        30.44F
APPLETON       MOSUNNY   66  46  48 E7        30.40F
BENSON         SUNNY     66  46  48 SE7       30.42F
ORTONVILLE     SUNNY     66  46  48 SE8       30.40F
MADISON        SUNNY     66  50  55 E7        30.40F
WILLMAR        FAIR      64  50  59 E7        30.43F
$$
MNZ033>034-036-042>043-049>051-058-059-292200-
   Central Minnesota

CITY           SKY/WX    TMP DP  RH WIND       PRES   REMARKS
ST CLOUD       MOSUNNY   64  49  57 E7        30.43F
SAUK CENTRE    MOCLDY    61  47  60 SE7       30.45S
PAYNESVILLE    PTSUNNY   62  47  57 N8        30.43F
AITKIN         CLOUDY    63  45  51 E7        30.45F
PINE RIVER     CLOUDY    59  48  67 E3        30.48F
BRAINERD       CLOUDY    60  47  61 NE5       30.46F
STAPLES        CLOUDY    59  45  58 NE6       30.46F
LONG PRAIRIE   CLOUDY    61  46  59 NE7       30.45F
LITTLE FALLS   CLOUDY    61  45  55 E5        30.45F
LITCHFIELD     SUNNY     66  52  59 NE8       30.43F
BUFFALO        MOSUNNY   65  49  55 NE5       30.43F
MAPLE LAKE     SUNNY     66  52  61 E8        30.43F
HUTCHINSON     SUNNY     66  51  58 NE7       30.43F
$$
MNZ037-044-045-052-053-292200-
   East Central Minnesota

CITY           SKY/WX    TMP DP  RH WIND       PRES   REMARKS
PRINCETON        N/A     66  52  59 CALM      30.43F
MORA           MOSUNNY   64  50  59 N5        30.45F
CAMBRIDGE      SUNNY     68  52  56 NE6       30.41F
MOOSE LAKE     CLOUDY    61  48  63 NE7       30.45S
HINCKLEY       FAIR      63  50  63 N6        30.44F
CLOQUET        MOSUNNY   61  46  59 NE10      30.47F
MCGREGOR       CLOUDY    61  46  59 E6        30.47F
$$
MNZ071>073-080-081-089-090-097-098-292200-
   Southwest Minnesota

CITY           SKY/WX    TMP DP  RH WIND       PRES   REMARKS
MONTEVIDEO     MOSUNNY   70  46  43 S6        30.42F
GRANITE FALLS  SUNNY     68  49  50 E6        30.42F
CANBY          SUNNY     66  48  51 E8        30.41F
MARSHALL       SUNNY     64  49  57 E8        30.40F
REDWOOD FALLS  SUNNY     68  46  45 E6        30.40F
OLIVIA         SUNNY     66  48  52 E6        30.41F
PIPESTONE      SUNNY     66  45  45 SE3       30.39F
WINDOM         SUNNY     66  48  52 E5        30.40F
WORTHINGTON    SUNNY     66  49  54 E7        30.40F
JACKSON        SUNNY     68  45  42 NE8       30.40F
TRACY          MOSUNNY   67  50  55 NE6       30.40F
SLAYTON        SUNNY     64  48  55 NE5       30.41F
$$
MNZ065>067-074>077-082>085-091>093-292200-
   South Central Minnesota

CITY           SKY/WX    TMP DP  RH WIND       PRES   REMARKS
MANKATO        SUNNY     65  49  56 NE7       30.40F
NEW ULM        SUNNY     66  48  52 CALM      30.40F
ST JAMES       MOSUNNY   66  48  52 N3        30.41S
FAIRMONT       SUNNY     68  48  48 VRB6      30.40F
GLENCOE        SUNNY     66  53  63 E7        30.41F
FARIBAULT      SUNNY     68  48  49 CALM      30.40F
OWATONNA       SUNNY     66  48  52 N3        30.39F
WASECA         SUNNY     64  46  52 NE6       30.41F
ALBERT LEA     SUNNY     70  46  43 N7        30.38F
$$
MNZ078>079-086>088-094>096-292200-
   Southeast Minnesota

CITY           SKY/WX    TMP DP  RH WIND       PRES   REMARKS
ROCHESTER      SUNNY     69  51  52 NE9       30.38F
RED WING       SUNNY     72  46  40 NE5       30.37F
DODGE CENTER   SUNNY     70  46  43 N8        30.39F
WINONA         SUNNY     70  52  52 CALM      30.36F
AUSTIN         SUNNY     70  50  49 NE8       30.37F
PRESTON        SUNNY     67  50  54 NE9       30.37S
$$
ABBREVIATIONS USED IN REMARKS
   TC - TEMPERATURES IN CELSIUS
  WCI - WIND CHILL INDEX
   HX - HEAT INDEX
  VSB - VISIBILITY
$$




USA.gov is the U.S. government's official web portal to all federal, state and local government web resources and services.